Skip Page Navigation
NASA JPL Caltech
NASA Logo - Jet Propulsion Laboratory + View the NASA Portal
+ Center for Near-Earth Object Studies
JPL Home Earth Solar System Stars & Galaxies Technology
JPL Solar System Dynamics
BODIES ORBITS EPHEMERIDES TOOLS PHYSICAL DATA DISCOVERY FAQ SITE MAP
IMPORTANT: The SSD Announcement email list is now available. Major changes are coming in the near future, including possible hostname and/or URL changes. To be notified of such changes, subscribe to this email list.

Please visit this page for more details.


JPL Small-Body Database Browser
Search: [ help ]  
447030 (2004 PM60)
Classification: Main-belt Asteroid          SPK-ID: 2447030
Ephemeris | Orbit Diagram | Orbital Elements | Mission Design | Physical Parameters | Discovery Circumstances | Close-Approach Data ]

[ show orbit diagram ]
Orbital Elements at Epoch 2458600.5 (2019-Apr-27.0) TDB
Reference: JPL 10 (heliocentric ecliptic J2000)
 Element Value Uncertainty (1-sigma)   Units 
e .2354261558417326 1.0241e-07  
a 3.174099466058596 4.2582e-08 au
q 2.426833430505124 3.2855e-07 au
i 29.54637845466516 1.2326e-05 deg
node 348.3509564679097 1.5876e-05 deg
peri 352.6316700633274 2.5766e-05 deg
M 216.5174580384602 2.3838e-05 deg
tp 2459423.738715288883
(2021-Jul-28.23871529)
0.00014969 TDB
period 2065.519145760871
5.66
4.1565e-05
1.138e-07
d
yr
n .1742903234466934 3.5073e-09 deg/d
Q 3.921365501612067 5.2607e-08 au
  Orbit Determination Parameters
   # obs. used (total)      182  
   data-arc span      5381 days (14.73 yr)  
   first obs. used      2004-08-09  
   last obs. used      2019-05-04  
   planetary ephem.      DE431  
   SB-pert. ephem.      SB431-N16  
   condition code      0  
   norm. resid. RMS      .51509  
   source      ORB  
   producer      Otto Matic  
   solution date      2019-May-30 10:15:53  

Additional Information
 Earth MOID = 1.42057 au 
 Jupiter MOID = 1.50766 au 
 T_jup = 2.960 
[ show covariance matrix ]

Ephemeris | Orbit Diagram | Orbital Elements | Mission Design | Physical Parameters | Discovery Circumstances | Close-Approach Data ]

Physical Parameter Table
Parameter Symbol Value Units Sigma Reference Notes
absolute magnitude H 15.0   n/a MPO437739  
diameter diameter 5.677 km 0.226 urn:nasa:pds:neowise_diameters_albedos::2.0[mainbelt] (http://adsabs.harvard.edu/abs/2011ApJ...741...68M)  
geometric albedo albedo 0.060   0.004 urn:nasa:pds:neowise_diameters_albedos::2.0[mainbelt] (http://adsabs.harvard.edu/abs/2011ApJ...741...68M)  

447030 (2004 PM60)          Discovered 2004-Aug-09 by LINEAR at Socorro
Reference: Last Updated: 2015-10-28

[ hide close-approach data ]
Close-Approach Data   ...sorted by Date/Time (TDB)
Date/Time (TDB) Time Uncertainty
(days_HH:MM)
Body Nominal Distance (au) Minimum Distance (au) Maximum Distance (au) V-relative (km/s) V-infinity (km/s) JD (TDB) Time Uncertainty (minutes) Semi-major axis (km) Semi-minor axis (km) range-LOV angle (deg) N-sigma BP Orbit Ref. Reference Modified
1933-May-20 18:48 00:04 Jupiter 1.63199541505815 1.63199091920505 1.63199991092804 6.69943269886193 6.62150872395277 2427213.283647260 3.93170569903582 357.634417416541 73.1397405083897 52.8638933796392 1709904.65298097 T 10 CATAB v2.0e-lin.ifort 2019-May-30 10:15:56 2019-May-30 10:15
1944-Oct-07 19:00 00:03 Jupiter 1.52365615784512 1.52365504000515 1.52365727568855 6.72396609188494 6.64077488334168 2431371.291613216 2.81569837686464 249.220198905849 48.7367374785272 -83.7542735208414 2111130.07584828 T 10 CATAB v2.0e-lin.ifort 2019-May-30 10:15:56 2019-May-30 10:15
1956-Feb-20 10:01 00:02 Jupiter 1.75401643073207 1.75401289100168 1.75401997046485 6.87182561474551 6.80118946793498 2435523.917520347 2.41444592518512 210.226130583263 79.0368168341294 -36.0541252879634 1669368.45654184 T 10 CATAB v2.0e-lin.ifort 2019-May-30 10:15:56 2019-May-30 10:15
2075-Nov-14 10:11 00:03 Jupiter 1.72263930712347 1.72263619938866 1.72264241486161 6.74619807511477 6.67291447393496 2479255.924527542 2.59719531473719 208.06816177202 77.310366873753 45.9748934160115 1803166.86351144 T 10 CATAB v2.0e-lin.ifort 2019-May-30 10:15:56 2019-May-30 10:15
2087-Mar-29 19:48 00:03 Jupiter 1.51736952809951 1.51736852726054 1.51737052893856 6.71559906509126 6.63195562554191 2483409.325094113 3.09973200403117 230.80519413663 49.5988347817783 89.1027596160371 2116751.26288818 T 10 CATAB v2.0e-lin.ifort 2019-May-30 10:15:56 2019-May-30 10:15
2098-Aug-15 14:51 00:04 Jupiter 1.64936227260474 1.64935721949976 1.64936732571676 6.79413569142777 6.71812390945869 2487566.118882154 4.26192126586622 308.448823128855 71.8380454910322 -36.7352412865406 1449634.52340548 T 10 CATAB v2.0e-lin.ifort 2019-May-30 10:15:56 2019-May-30 10:15
Ephemeris | Orbit Diagram | Orbital Elements | Mission Design | Physical Parameters | Discovery Circumstances | Close-Approach Data ]
ABOUT SSD CREDITS/AWARDS PRIVACY/COPYRIGHT GLOSSARY LINKS
FirstGov 2019-Dec-15 08:14 UT
(server date/time)  
NASA Home Page
Site Manager:   Ryan S. Park
Webmaster  Alan B. Chamberlin